Harlan, IA

3:21 PM CDT on June 25, 2017 (GMT -0500)
Harlan Municipal

Weather History for KHNR - December, 2013

Change the Weather History Date:

Monday, December 9, 2013

  Actual Average Record
Temperature  
Mean Temperature 2 °F -  
Max Temperature 8 °F 34 °F 55 °F (1993)
Min Temperature -5 °F 17 °F -10 °F (1958)
Degree Days  
Heating Degree Days 64    
Moisture  
Dew Point -5 °F    
Average Humidity 70    
Maximum Humidity 85    
Minimum Humidity 57    
Precipitation  
Precipitation 0.00 in - - ()
Sea Level Pressure  
Sea Level Pressure 30.23 in    
Wind  
Wind Speed 11 mph (WSW)    
Max Wind Speed 20 mph    
Max Gust Speed 25 mph    
Visibility 10 miles    
Events Snow    
Averages and records for this station are not official NWS values.
T = Trace of Precipitation, MM = Missing Value Source: NWS Daily Summary

Daily Weather History Graph

Daily Weather History Graph

Search for Another Location

Airport or City:

Trip Planner

Search our weather history database for the weather conditions in past years. The results will help you decide how hot, cold, wet, or windy it might be!

Date:

Astronomy

Dec. 09, 2013 Rise Set
Actual Time 7:36 AM CST 4:51 PM CST
Civil Twilight 7:05 AM CST 5:22 PM CST
Nautical Twilight 6:30 AM CST 5:57 PM CST
Astronomical Twilight 5:56 AM CST 6:30 PM CST
Moon 12:25 PM CST (12/9) No Moon Set
Length of Visible Light 10h 17m
Length of Day
9h 14m
Waxing Crescent, 51% of the Moon is Illuminated
Dec 9
Waxing Crescent
Dec 17
Full
Dec 25
Last Quarter
Jan 1
New
Jan 7
First Quarter

Hourly Weather History & Observations

Time (CST) Temp. Windchill Dew Point Humidity Pressure Visibility Wind Dir Wind Speed Gust Speed Precip Events Conditions
12:15 AM 6.8 °F -9.3 °F 3.2 °F 85% 30.13 in 10.0 mi WNW 12.7 mph - N/A   Clear
12:35 AM 6.8 °F -10.0 °F 3.2 °F 85% 30.14 in 10.0 mi WNW 13.8 mph - N/A   Clear
1:55 AM 5.0 °F -10.0 °F 1.4 °F 85% 30.15 in 10.0 mi WNW 10.4 mph - N/A   Clear
2:15 AM 5.0 °F -10.0 °F -0.4 °F 78% 30.16 in 10.0 mi WNW 10.4 mph - N/A   Clear
2:35 AM 3.2 °F -12.2 °F -0.4 °F 85% 30.17 in 10.0 mi WNW 10.4 mph - N/A   Clear
2:55 AM 3.2 °F -12.2 °F -2.2 °F 78% 30.17 in 10.0 mi WNW 10.4 mph - N/A   Partly Cloudy
3:15 AM 3.2 °F -9.1 °F -2.2 °F 78% 30.18 in 10.0 mi WNW 6.9 mph - N/A   Clear
3:35 AM 1.4 °F - -4.0 °F 78% 30.18 in 10.0 mi Calm Calm - N/A   Clear
3:55 AM 1.4 °F -8.3 °F -4.0 °F 78% 30.18 in 10.0 mi West 4.6 mph - N/A   Clear
4:35 AM 1.4 °F -9.9 °F -4.0 °F 78% 30.19 in 10.0 mi West 5.8 mph - N/A   Clear
4:55 AM -0.4 °F -16.7 °F -5.8 °F 78% 30.19 in 10.0 mi NW 10.4 mph - N/A   Clear
5:15 AM -0.4 °F -21.2 °F -5.8 °F 78% 30.21 in 10.0 mi WNW 17.3 mph - N/A   Clear
5:35 AM -0.4 °F -17.6 °F -7.6 °F 72% 30.22 in 10.0 mi WNW 11.5 mph 19.6 mph N/A Snow Light Snow
5:55 AM -2.2 °F -18.0 °F -9.4 °F 71% 30.23 in 10.0 mi WNW 9.2 mph - N/A   Clear
6:15 AM -4.0 °F -19.0 °F -11.2 °F 71% 30.24 in 10.0 mi West 8.1 mph - N/A   Clear
6:35 AM -2.2 °F -18.9 °F -9.4 °F 71% 30.25 in 10.0 mi West 10.4 mph - N/A   Clear
6:55 AM -2.2 °F -22.2 °F -9.4 °F 71% 30.26 in 10.0 mi WNW 15.0 mph - N/A   Clear
7:15 AM -2.2 °F -19.9 °F -9.4 °F 71% 30.27 in 10.0 mi WNW 11.5 mph - N/A   Clear
7:35 AM -4.0 °F -21.2 °F -11.2 °F 71% 30.27 in 10.0 mi WNW 10.4 mph - N/A   Clear
7:55 AM -5.8 °F -23.4 °F -13.0 °F 71% 30.27 in 10.0 mi WNW 10.4 mph - N/A   Clear
8:15 AM -4.0 °F -19.0 °F -11.2 °F 71% 30.28 in 10.0 mi WNW 8.1 mph - N/A   Clear
8:35 AM -2.2 °F -18.0 °F -9.4 °F 71% 30.29 in 10.0 mi WNW 9.2 mph - N/A   Clear
8:55 AM -0.4 °F -14.7 °F -9.4 °F 66% 30.31 in 10.0 mi NW 8.1 mph - N/A   Clear
9:15 AM -0.4 °F -14.7 °F -9.4 °F 66% 30.31 in 10.0 mi NW 8.1 mph - N/A   Clear
9:35 AM 1.4 °F -16.1 °F -7.6 °F 66% 30.32 in 10.0 mi WNW 12.7 mph - N/A   Clear
9:55 AM 1.4 °F -14.5 °F -7.6 °F 66% 30.32 in 10.0 mi NW 10.4 mph - N/A   Clear
10:15 AM 1.4 °F -13.5 °F -7.6 °F 66% 30.33 in 10.0 mi WNW 9.2 mph 17.3 mph N/A   Clear
10:35 AM 3.2 °F -13.1 °F -7.6 °F 61% 30.33 in 10.0 mi WNW 11.5 mph 18.4 mph N/A   Clear
10:55 AM 3.2 °F -15.3 °F -5.8 °F 66% 30.33 in 10.0 mi WNW 15.0 mph - N/A   Clear
11:15 AM 5.0 °F -12.3 °F -5.8 °F 61% 30.32 in 10.0 mi WNW 13.8 mph - N/A   Clear
11:35 AM 5.0 °F -13.0 °F -5.8 °F 61% 30.32 in 10.0 mi WNW 15.0 mph - N/A   Clear
11:55 AM 5.0 °F -12.3 °F -5.8 °F 61% 30.31 in 10.0 mi West 13.8 mph - N/A   Clear
12:15 PM 5.0 °F -9.1 °F -5.8 °F 61% 30.32 in 10.0 mi WNW 9.2 mph 15.0 mph N/A   Clear
12:35 PM 6.8 °F -8.6 °F -4.0 °F 61% 30.31 in 10.0 mi West 11.5 mph - N/A   Clear
12:55 PM 6.8 °F -8.6 °F -4.0 °F 61% 30.30 in 10.0 mi WSW 11.5 mph - N/A   Clear
1:15 PM 6.8 °F -7.8 °F -4.0 °F 61% 30.29 in 10.0 mi West 10.4 mph - N/A   Clear
1:35 PM 6.8 °F -8.6 °F -4.0 °F 61% 30.29 in 10.0 mi WSW 11.5 mph - N/A   Clear
1:55 PM 6.8 °F -8.6 °F -2.2 °F 67% 30.28 in 10.0 mi WSW 11.5 mph - N/A   Clear
2:15 PM 6.8 °F -9.3 °F -4.0 °F 61% 30.27 in 10.0 mi West 12.7 mph - N/A   Clear
2:35 PM 6.8 °F -6.9 °F -2.2 °F 67% 30.27 in 10.0 mi WSW 9.2 mph - N/A   Clear
2:55 PM 8.6 °F -5.5 °F -4.0 °F 57% 30.27 in 10.0 mi WSW 10.4 mph - N/A   Clear
3:15 PM 8.6 °F -4.7 °F -4.0 °F 57% 30.25 in 10.0 mi WSW 9.2 mph - N/A   Clear
3:35 PM 6.8 °F -7.8 °F -2.2 °F 67% 30.26 in 10.0 mi SW 10.4 mph - N/A   Clear
3:55 PM 8.6 °F -4.7 °F -2.2 °F 62% 30.25 in 10.0 mi SSW 9.2 mph - N/A   Clear
4:15 PM 6.8 °F -8.6 °F -4.0 °F 61% 30.25 in 10.0 mi SW 11.5 mph - N/A   Clear
4:35 PM 6.8 °F -6.9 °F -4.0 °F 61% 30.25 in 10.0 mi SSW 9.2 mph - N/A   Clear
4:55 PM 5.0 °F -9.1 °F -4.0 °F 66% 30.24 in 10.0 mi South 9.2 mph - N/A   Clear
5:15 PM 3.2 °F -13.1 °F -4.0 °F 72% 30.23 in 10.0 mi SSW 11.5 mph - N/A   Clear
5:35 PM 3.2 °F -12.2 °F -5.8 °F 66% 30.23 in 10.0 mi South 10.4 mph - N/A   Clear
5:55 PM 3.2 °F -13.1 °F -5.8 °F 66% 30.23 in 10.0 mi SSW 11.5 mph - N/A   Clear
6:15 PM 1.4 °F -13.5 °F -5.8 °F 72% 30.22 in 10.0 mi South 9.2 mph - N/A   Clear
6:35 PM 1.4 °F -13.5 °F -5.8 °F 72% 30.23 in 10.0 mi SSW 9.2 mph - N/A   Clear
6:55 PM -0.4 °F -14.7 °F -7.6 °F 72% 30.23 in 10.0 mi South 8.1 mph - N/A   Clear
7:15 PM -0.4 °F -14.7 °F -7.6 °F 72% 30.22 in 10.0 mi South 8.1 mph - N/A   Clear
7:35 PM -0.4 °F -13.4 °F -7.6 °F 72% 30.21 in 10.0 mi SSW 6.9 mph - N/A   Clear
7:55 PM -0.4 °F -15.7 °F -7.6 °F 72% 30.20 in 10.0 mi SSW 9.2 mph - N/A   Clear
8:15 PM -0.4 °F -15.7 °F -7.6 °F 72% 30.18 in 10.0 mi SSW 9.2 mph - N/A   Clear
8:35 PM 1.4 °F -12.5 °F -5.8 °F 72% 30.16 in 10.0 mi South 8.1 mph 15.0 mph N/A   Clear
8:55 PM -0.4 °F -16.7 °F -7.6 °F 72% 30.16 in 10.0 mi SSW 10.4 mph - N/A   Clear
9:15 PM -0.4 °F -16.7 °F -7.6 °F 72% 30.16 in 10.0 mi SSW 10.4 mph - N/A   Clear
9:35 PM -0.4 °F -13.4 °F -7.6 °F 72% 30.15 in 10.0 mi South 6.9 mph - N/A   Clear
9:55 PM -0.4 °F -12.0 °F -7.6 °F 72% 30.14 in 10.0 mi South 5.8 mph - N/A   Clear
10:15 PM 1.4 °F -12.5 °F -5.8 °F 72% 30.13 in 10.0 mi South 8.1 mph - N/A   Scattered Clouds
10:35 PM 1.4 °F -16.1 °F -5.8 °F 72% 30.11 in 10.0 mi SSW 12.7 mph - N/A   Mostly Cloudy
10:55 PM 3.2 °F -13.9 °F -2.2 °F 78% 30.09 in 10.0 mi SSW 12.7 mph - N/A   Overcast
11:15 PM 6.8 °F -11.3 °F -2.2 °F 67% 30.07 in 10.0 mi SSW 16.1 mph - N/A   Overcast
11:35 PM 6.8 °F -12.9 °F -0.4 °F 72% 30.07 in 10.0 mi SSW 19.6 mph 25.3 mph N/A   Mostly Cloudy
11:55 PM 8.6 °F -7.7 °F 1.4 °F 73% 30.07 in 10.0 mi SSW 13.8 mph - N/A   Mostly Cloudy